Vorticity
8 7 5 4 3 2 4 4 3 4 4 7 8 8 9 9 8 9 5 3 3 1 2 1 2 1 1 2 3 2 -0 0 1
8 12 8 6 4 3 3 4 3 4 5 7 7 5 4 3 2 1 2 3 3 2 2 2 3 3 0 -0 0 2 3 4 3
5 4 5 10 13 14 13 11 10 7 6 5 4 3 3 3 4 5 5 6 5 5 6 4 2 5 0 -0 -1 3 3 2 3
5 3 3 4 3 3 5 6 8 7 6 4 4 4 4 4 4 3 3 4 4 4 4 4 5 3 2 3 -1 1 1 3 4
6 7 7 7 5 4 3 3 4 4 4 5 5 4 2 2 2 3 3 3 2 2 2 6 12 9 3 2 1 1 4 6 8
7 8 7 7 7 8 7 6 5 4 3 3 3 4 4 4 4 4 5 9 13 15 15 10 9 9 12 17 14 11 10 9 9
9 7 8 10 11 10 10 10 9 8 8 7 6 6 6 8 4 9 9 12 11 13 13 12 13 14 13 13 14 14 13 12 12
11 10 10 10 10 9 8 7 6 7 7 7 6 6 6 8 11 11 13 14 11 10 10 10 10 9 8 8 7 6 5 5 4
8 10 9 6 5 5 5 6 5 6 6 6 7 8 9 8 9 10 8 8 7 6 5 5 5 6 5 6 5 5 5 5 6
5 7 6 3 4 4 3 2 3 4 5 6 6 7 8 9 8 8 8 6 5 5 5 5 4 5 6 7 6 6 6 5 5
2 4 6 6 3 3 3 2 3 6 8 10 10 10 8 8 8 8 7 7 6 6 6 6 7 6 4 3 3 3 3 3 3
9 6 9 8 5 4 3 3 6 11 13 11 10 9 8 7 6 6 6 7 7 6 5 4 4 4 3 3 4 4 3 3 5
16 9 9 7 5 4 2 9 16 14 11 8 8 6 6 6 7 7 7 6 4 4 4 3 0 0 4 1 -2 -0 3 2 2
14 13 7 6 5 4 10 9 10 9 7 7 6 6 8 8 7 5 4 4 4 5 5 3 3 2 1 -1 1 1 -1 2 3
7 7 5 4 6 8 7 9 11 7 6 6 7 7 6 6 4 4 6 6 5 4 1 -1 -1 1 4 4 5 3 2 3 6
3 1 4 4 6 6 7 10 8 7 7 8 7 8 8 7 6 3 2 2 1 3 5 5 5 4 5 7 7 7 6 5 5
6 6 6 8 7 8 9 8 7 8 7 5 5 5 1 3 3 3 4 3 3 4 7 7 7 8 7 6 6 7 7 8 7
6 8 7 8 10 8 7 8 7 6 6 4 4 3 1 2 3 3 3 6 6 6 8 7 7 7 7 7 6 5 5 6 6
7 7 10 8 8 8 8 6 5 3 2 3 4 5 6 5 3 1 5 8 9 9 8 8 7 8 7 7 8 8 7 7 7
8 10 9 7 8 8 6 4 3 3 4 4 4 5 6 8 9 7 6 4 4 5 6 6 8 8 8 7 7 7 6 5 4
Height
5845 5845 5845 5844 5845 5844 5844 5844 5843 5843 5842 5841 5840 5840 5839 5837 5836 5835 5834 5833 5832 5829 5829 5828 5828 5827 5826 5826 5825 5824 5823 5823 5822
5842 5841 5840 5840 5840 5839 5839 5838 5838 5837 5836 5835 5834 5833 5833 5832 5831 5830 5829 5827 5826 5824 5823 5822 5821 5820 5820 5819 5818 5818 5817 5816 5816
5839 5838 5836 5836 5834 5834 5833 5832 5832 5831 5830 5829 5828 5828 5827 5825 5824 5824 5823 5821 5819 5817 5816 5815 5814 5813 5812 5811 5811 5810 5809 5809 5808
5833 5833 5832 5831 5831 5829 5828 5828 5827 5826 5825 5824 5823 5822 5821 5819 5818 5816 5815 5813 5811 5810 5809 5807 5806 5805 5804 5803 5802 5801 5800 5800 5799
5829 5828 5827 5826 5826 5825 5824 5823 5822 5821 5820 5818 5817 5816 5814 5812 5809 5808 5806 5805 5803 5801 5799 5798 5796 5795 5794 5793 5792 5791 5790 5790 5789
5825 5823 5823 5821 5820 5819 5818 5818 5817 5815 5814 5812 5811 5809 5807 5805 5802 5800 5797 5795 5793 5791 5789 5787 5786 5785 5783 5782 5782 5781 5780 5779 5778
5820 5819 5818 5815 5815 5814 5812 5811 5810 5809 5807 5805 5804 5802 5799 5797 5794 5792 5789 5785 5783 5781 5779 5778 5776 5775 5774 5773 5772 5771 5770 5769 5769
5816 5814 5813 5811 5810 5809 5807 5805 5804 5802 5800 5798 5796 5794 5791 5788 5786 5783 5780 5777 5775 5772 5771 5770 5768 5766 5765 5764 5763 5761 5760 5759 5759
5812 5810 5808 5806 5804 5803 5802 5799 5797 5795 5793 5790 5787 5785 5782 5779 5777 5775 5772 5769 5767 5765 5762 5761 5760 5758 5756 5754 5753 5751 5750 5749 5748
5806 5805 5803 5801 5800 5798 5796 5793 5791 5788 5785 5782 5779 5776 5773 5771 5768 5766 5764 5762 5759 5756 5754 5751 5748 5747 5745 5744 5742 5740 5738 5737 5736
5800 5799 5797 5795 5794 5792 5789 5787 5784 5780 5777 5774 5771 5768 5765 5761 5759 5758 5756 5753 5750 5746 5743 5740 5738 5736 5734 5732 5730 5729 5727 5725 5723
5793 5791 5790 5789 5787 5784 5782 5779 5776 5773 5769 5766 5762 5760 5757 5753 5751 5748 5746 5742 5739 5737 5733 5731 5728 5725 5723 5720 5718 5714 5712 5710 5709
5786 5784 5783 5782 5780 5777 5774 5771 5766 5763 5761 5757 5754 5751 5747 5744 5741 5738 5734 5731 5728 5726 5722 5719 5716 5713 5710 5706 5703 5701 5698 5695 5693
5780 5778 5776 5775 5772 5769 5765 5761 5758 5755 5752 5748 5746 5742 5737 5734 5731 5728 5724 5720 5717 5713 5709 5706 5702 5699 5695 5692 5687 5684 5681 5678 5676
5773 5771 5769 5767 5763 5759 5756 5752 5747 5745 5742 5739 5736 5732 5728 5725 5721 5717 5713 5708 5704 5699 5696 5691 5687 5682 5678 5674 5669 5665 5662 5659 5655
5766 5763 5760 5757 5754 5750 5746 5742 5738 5732 5730 5727 5725 5721 5716 5713 5708 5704 5699 5694 5689 5684 5679 5674 5668 5663 5658 5653 5648 5643 5640 5637 5634
5759 5755 5752 5748 5744 5739 5735 5731 5727 5722 5717 5714 5711 5710 5709 5702 5696 5690 5683 5677 5671 5665 5659 5653 5647 5641 5636 5631 5626 5621 5616 5611 5607
5749 5746 5742 5737 5733 5728 5724 5719 5715 5711 5705 5698 5694 5690 5688 5687 5686 5680 5672 5664 5658 5650 5643 5636 5628 5621 5615 5608 5603 5597 5591 5587 5582
5739 5735 5731 5727 5722 5718 5713 5707 5703 5699 5694 5689 5681 5672 5664 5659 5659 5660 5654 5646 5639 5631 5623 5615 5606 5598 5591 5584 5577 5570 5565 5560 5555
5730 5726 5721 5717 5712 5707 5702 5697 5691 5686 5681 5675 5669 5663 5655 5644 5635 5628 5624 5620 5615 5609 5600 5590 5581 5572 5563 5555 5548 5541 5535 5529 5523